Main page
Satellite images Climate Cyclones Lightning AirportsFAQ Languages Contact Newsletter About
Weather : Europe Africa North America South America Asia Australia-Oceania Others

bangkok-th, Bangkok, Don Mueang International Airport

48456

latitude: , longitude: Thailand, elevation: 13-54-45N m


METAR: VTBD 250400Z 24007KT 190V290 9999 FEW020 SCT040 36/25 Q1009 NOSIG